CST,Max TemperatureF,Mean TemperatureF,Min TemperatureF,Max Dew PointF,MeanDew PointF,Min DewpointF,Max Humidity, Mean Humidity, Min Humidity, Max Sea Level PressureIn, Mean Sea Level PressureIn, Min Sea Level PressureIn, Max VisibilityMiles, Mean VisibilityMiles, Min VisibilityMiles, Max Wind SpeedMPH, Mean Wind SpeedMPH, Max Gust SpeedMPH,PrecipitationIn, CloudCover, Events, WindDirDegrees
2013-12-1,40,32,24,28,25,22,92,77,58,30.14,30.08,29.98,10,9,5,6,2,,0.00,5,,352
2013-12-2,39,29,19,32,25,17,92,81,65,29.98,29.87,29.77,10,8,1,12,3,,0.02,6,Snow,97
2013-12-3,34,32,31,33,32,30,95,94,92,29.81,29.78,29.74,10,3,1,13,9,21,0.15,8,Rain-Snow,68
2013-12-4,41,36,31,40,33,30,96,94,84,29.81,29.62,29.39,10,3,0,21,6,30,0.00,8,Fog-Rain,37
2013-12-5,34,22,9,29,10,2,80,65,52,30.23,29.92,29.55,10,10,10,25,18,37,0.00,2,,260
2013-12-6,12,8,3,1,-2,-4,74,65,55,30.52,30.37,30.24,10,10,10,15,10,21,0.00,0,,282
2013-12-7,11,4,-2,-3,-6,-9,78,66,49,30.66,30.60,30.52,10,10,10,10,6,16,0.00,0,,272
2013-12-8,14,8,1,10,3,-5,82,75,66,30.58,30.31,29.97,10,5,2,10,3,,0.00,7,Snow,35
2013-12-9,17,8,-3,10,2,-10,84,69,54,30.10,29.98,29.88,10,8,2,25,9,34,0.00,4,Snow,258
2013-12-10,15,5,-5,4,-2,-12,78,66,51,30.19,29.99,29.83,10,8,2,21,7,29,0.00,3,Snow,237
2013-12-11,11,2,-7,5,-9,-16,78,60,42,30.46,30.37,30.19,10,10,4,15,7,22,0.00,2,Snow,275
2013-12-12,20,8,-4,12,1,-12,75,66,56,30.41,30.23,30.13,10,9,2,14,5,17,0.00,5,Snow,241
2013-12-13,20,17,14,12,7,2,75,64,55,30.28,30.21,30.13,10,10,4,13,5,17,0.00,8,Snow,33
2013-12-14,21,18,14,16,12,9,87,80,73,30.27,30.09,29.90,10,6,2,15,6,21,0.00,7,Snow,15
2013-12-15,16,7,-2,9,-4,-11,73,62,47,30.10,29.98,29.89,10,9,1,16,11,23,0.00,,Snow,284
2013-12-16,14,3,-8,11,-1,-14,84,74,60,30.12,30.04,29.94,10,9,0,12,3,,0.00,,Snow,221
2013-12-17,34,24,15,23,17,6,87,71,55,30.03,29.89,29.80,10,8,1,16,9,25,0.00,,Snow,263
2013-12-18,30,17,4,15,8,-1,84,68,53,30.06,29.87,29.67,10,10,10,14,6,20,0.00,0,,197
2013-12-19,29,20,12,20,16,8,90,77,68,30.03,29.93,29.74,10,10,5,14,4,20,0.00,4,,24
2013-12-20,24,22,20,20,18,15,89,82,76,29.96,29.89,29.82,10,7,1,16,8,21,0.00,8,Snow,17
2013-12-21,27,25,23,25,22,19,92,85,72,29.93,29.87,29.81,10,7,0,13,4,17,0.00,8,Fog,14
2013-12-22,25,22,20,20,19,17,89,82,71,30.10,29.91,29.78,10,5,1,13,8,18,0.00,8,Snow,4
2013-12-23,22,12,2,19,12,-3,89,83,75,30.39,30.25,30.10,10,4,0,10,2,,0.00,7,Snow,292
2013-12-24,17,4,-9,6,-3,-16,82,74,55,30.48,30.40,30.25,10,9,2,8,3,,0.00,2,Snow,158
2013-12-25,22,16,10,18,11,6,87,79,71,30.23,30.10,30.02,10,5,1,12,6,18,0.00,8,Snow,221
2013-12-26,22,17,12,14,11,8,86,75,65,30.20,30.14,30.04,10,10,7,7,3,,0.00,7,Snow,231
2013-12-27,35,20,6,28,18,2,88,79,67,30.21,30.07,29.90,10,7,0,12,3,,0.00,3,Fog-Snow,203
2013-12-28,45,31,17,36,26,14,94,82,54,29.99,29.85,29.71,10,6,0,7,3,,0.00,1,Fog,187
2013-12-29,33,16,-2,30,8,-10,90,67,47,30.21,29.99,29.70,10,9,2,17,9,24,0.00,5,,328
2013-12-30,1,-6,-13,-5,-15,-21,74,60,36,30.29,30.21,30.15,10,9,2,8,5,,0.00,4,Snow,271
2013-12-31,9,-1,-11,-4,-8,-19,75,62,49,30.38,30.24,30.13,10,10,5,13,6,,0.00,4,Snow,284